| time (UTC) | temp F | wind direction | speed knots | gust knots | rain 1hr in | rain 24hr in | rain mn in | humidity % | barometer mb |
| 20260509060819 | 58 | 0 | 0.0 | 0.0 | 0.00 | 0.00 | 0.00 | 98 | |
| 20260509055819 | 59 | 0 | 0.0 | 0.0 | 0.00 | 0.00 | 0.00 | 98 | |
| 20260509054749 | 59 | 0 | 0.0 | 0.0 | 0.00 | 0.00 | 0.00 | 97 | |
| 20260509053719 | 59 | 0 | 0.0 | 0.0 | 0.00 | 0.00 | 0.00 | 97 | |
| 20260509052649 | 59 | 0 | 0.0 | 0.0 | 0.00 | 0.00 | 0.00 | 96 | |
| 20260509051649 | 60 | 0 | 0.0 | 0.0 | 0.00 | 0.00 | 0.00 | 95 | |
| 20260509050619 | 60 | 0 | 0.0 | 0.0 | 0.00 | 0.00 | 0.00 | 94 | |
| 20260509045619 | 61 | 0 | 0.0 | 0.0 | 0.00 | 0.00 | 0.00 | 94 | |
| 20260509044619 | 61 | 0 | 0.0 | 0.0 | 0.00 | 0.00 | 0.00 | 91 | |
| 20260509043549 | 62 | 0 | 0.0 | 0.0 | 0.00 | 0.00 | 0.00 | 91 | |
| 20260509042519 | 63 | 0 | 0.0 | 0.0 | 0.00 | 0.00 | 0.00 | 89 | |
| 20260509041519 | 63 | 0 | 0.0 | 0.0 | 0.00 | 0.00 | 0.00 | 89 | |
| 20260509040449 | 64 | 0 | 0.0 | 0.0 | 0.00 | 0.00 | 0.00 | 86 | |
| 20260509035419 | 65 | 0 | 0.0 | 0.0 | 0.00 | 0.00 | 0.00 | 85 | |
| 20260509034419 | 66 | 0 | 0.0 | 0.0 | 0.00 | 0.00 | 0.00 | 83 | |
| 20260509033349 | 67 | 0 | 0.0 | 0.0 | 0.00 | 0.00 | 0.00 | 81 | |
| 20260509032349 | 68 | 0 | 0.0 | 0.0 | 0.00 | 0.00 | 0.00 | 79 | |
| 20260509031319 | 70 | 0 | 0.0 | 0.0 | 0.00 | 0.00 | 0.00 | 76 | |
| 20260509030249 | 71 | 0 | 0.0 | 0.0 | 0.00 | 0.00 | 0.00 | 74 | |
| 20260509025219 | 72 | 0 | 0.0 | 0.0 | 0.00 | 0.00 | 0.00 | 72 | |
| 20260509024149 | 74 | 0 | 0.0 | 0.0 | 0.00 | 0.00 | 0.00 | 69 | |
| 20260509023119 | 75 | 0 | 0.0 | 0.0 | 0.00 | 0.00 | 0.00 | 67 | |
| 20260509022049 | 77 | 0 | 0.0 | 0.0 | 0.00 | 0.00 | 0.00 | 63 | |
| 20260509021049 | 78 | 0 | 0.0 | 0.0 | 0.00 | 0.00 | 0.00 | 59 | |
| 20260509020019 | 78 | 0 | 0.0 | 0.0 | 0.00 | 0.00 | 0.00 | 55 | |
| 20260509015019 | 79 | 0 | 0.9 | 0.0 | 0.00 | 0.00 | 0.00 | 54 | |
| 20260509013949 | 79 | 0 | 0.0 | 0.0 | 0.00 | 0.00 | 0.00 | 50 | |
| 20260509012919 | 79 | 0 | 0.9 | 0.0 | 0.00 | 0.00 | 0.00 | 50 | |
| 20260509011849 | 80 | 0 | 1.7 | 0.0 | 0.00 | 0.00 | 0.00 | 55 | |
| 20260509010849 | 80 | 0 | 1.7 | 0.0 | 0.00 | 0.00 | 0.00 | 56 | |
| 20260509005819 | 80 | 0 | 2.6 | 0.0 | 0.00 | 0.00 | 0.00 | 56 | |
| 20260509004749 | 82 | 0 | 1.7 | 0.0 | 0.00 | 0.00 | 0.00 | 54 | |
| 20260509003719 | 82 | 0 | 0.9 | 0.0 | 0.00 | 0.00 | 0.00 | 54 | |
| 20260509002649 | 82 | 0 | 4.3 | 0.0 | 0.00 | 0.00 | 0.00 | 52 | |
| 20260509001649 | 83 | 0 | 3.5 | 0.0 | 0.00 | 0.00 | 0.00 | 51 | |
| 20260509000619 | 85 | 0 | 2.6 | 0.0 | 0.00 | 0.00 | 0.00 | 47 | |
| 20260508235549 | 88 | 0 | 2.6 | 0.0 | 0.00 | 0.00 | 0.00 | 43 | |
| 20260508234549 | 86 | 0 | 1.7 | 0.0 | 0.00 | 0.00 | 0.00 | 47 | |
| 20260508233549 | 87 | 0 | 3.5 | 0.0 | 0.00 | 0.00 | 0.00 | 47 | |
| 20260508232549 | 86 | 0 | 3.5 | 0.0 | 0.00 | 0.00 | 0.00 | 48 | |
| 20260508231519 | 86 | 0 | 0.9 | 0.0 | 0.00 | 0.00 | 0.00 | 49 | |
| 20260508230520 | 87 | 0 | 2.6 | 0.0 | 0.00 | 0.00 | 0.00 | 47 | |
| 20260508225449 | 89 | 0 | 1.7 | 0.0 | 0.00 | 0.00 | 0.00 | 47 | |
| 20260508224419 | 88 | 0 | 2.6 | 0.0 | 0.00 | 0.00 | 0.00 | 49 | |
| 20260508223419 | 87 | 0 | 3.5 | 0.0 | 0.00 | 0.00 | 0.00 | 51 | |
| 20260508222419 | 86 | 0 | 1.7 | 0.0 | 0.00 | 0.00 | 0.00 | 52 | |
| 20260508221349 | 88 | 0 | 1.7 | 0.0 | 0.00 | 0.00 | 0.00 | 48 | |
| 20260508220349 | 87 | 0 | 4.3 | 0.0 | 0.00 | 0.00 | 0.00 | 51 | |
| 20260508215349 | 88 | 0 | 0.9 | 0.0 | 0.00 | 0.00 | 0.00 | 50 | |
| 20260508214319 | 85 | 0 | 1.7 | 0.0 | 0.00 | 0.00 | 0.00 | 53 | |
| 20260508213319 | 86 | 0 | 0.9 | 0.0 | 0.00 | 0.00 | 0.00 | 53 | |
| 20260508212249 | 86 | 0 | 1.7 | 0.0 | 0.00 | 0.00 | 0.00 | 53 | |
| 20260508211219 | 85 | 0 | 1.7 | 0.0 | 0.00 | 0.00 | 0.00 | 53 | |
| 20260508210219 | 85 | 0 | 1.7 | 0.0 | 0.00 | 0.00 | 0.00 | 53 | |
| 20260508205149 | 83 | 0 | 3.5 | 0.0 | 0.00 | 0.00 | 0.00 | 55 | |
| 20260508204149 | 83 | 0 | 1.7 | 0.0 | 0.00 | 0.00 | 0.00 | 54 | |
| 20260508203119 | 83 | 0 | 3.5 | 0.0 | 0.00 | 0.00 | 0.00 | 54 | |
| 20260508202049 | 81 | 0 | 1.7 | 0.0 | 0.00 | 0.00 | 0.00 | 55 | |
| 20260508201049 | 82 | 0 | 2.6 | 0.0 | 0.00 | 0.00 | 0.00 | 54 | |
| 20260508200049 | 82 | 0 | 3.5 | 0.0 | 0.00 | 0.00 | 0.00 | 54 | |
| 20260508195049 | 81 | 0 | 1.7 | 0.0 | 0.00 | 0.00 | 0.00 | 55 | |
| 20260508194019 | 80 | 0 | 2.6 | 0.0 | 0.00 | 0.00 | 0.00 | 58 | |
| 20260508193019 | 81 | 0 | 3.5 | 0.0 | 0.00 | 0.00 | 0.00 | 57 | |
| 20260508191949 | 81 | 0 | 1.7 | 0.0 | 0.00 | 0.00 | 0.00 | 57 | |
| 20260508190949 | 78 | 0 | 1.7 | 0.0 | 0.00 | 0.00 | 0.00 | 62 | |
| 20260508185919 | 78 | 0 | 3.5 | 0.0 | 0.00 | 0.00 | 0.00 | 61 | |
| 20260508184849 | 79 | 0 | 4.3 | 0.0 | 0.00 | 0.00 | 0.00 | 61 | |
| 20260508183819 | 78 | 0 | 3.5 | 0.0 | 0.00 | 0.00 | 0.00 | 61 | |
| 20260508182749 | 78 | 0 | 4.3 | 0.0 | 0.00 | 0.00 | 0.00 | 61 | |
| 20260508181719 | 78 | 0 | 3.5 | 0.0 | 0.00 | 0.00 | 0.00 | 62 | |
| 20260508180649 | 77 | 0 | 0.9 | 0.0 | 0.00 | 0.00 | 0.00 | 63 | |
| 20260508175619 | 76 | 0 | 3.5 | 0.0 | 0.00 | 0.00 | 0.00 | 62 | |
| 20260508174549 | 75 | 0 | 0.9 | 0.0 | 0.00 | 0.00 | 0.00 | 63 | |
| 20260508173519 | 72 | 0 | 1.7 | 0.0 | 0.00 | 0.00 | 0.00 | 70 | |
| 20260508172519 | 72 | 0 | 1.7 | 0.0 | 0.00 | 0.00 | 0.00 | 70 | |
| 20260508171449 | 71 | 0 | 1.7 | 0.0 | 0.00 | 0.00 | 0.00 | 71 | |
| 20260508170419 | 71 | 0 | 2.6 | 0.0 | 0.00 | 0.00 | 0.00 | 70 | |
| 20260508165419 | 72 | 0 | 2.6 | 0.0 | 0.00 | 0.00 | 0.00 | 67 | |
| 20260508164349 | 73 | 0 | 0.0 | 0.0 | 0.00 | 0.00 | 0.00 | 60 | |
| 20260508163319 | 74 | 0 | 1.7 | 0.0 | 0.00 | 0.00 | 0.00 | 59 | |
| 20260508162319 | 73 | 0 | 0.9 | 0.0 | 0.00 | 0.00 | 0.00 | 59 | |
| 20260508161249 | 69 | 0 | 0.0 | 0.0 | 0.00 | 0.00 | 0.00 | 65 | |
| 20260508160219 | 67 | 0 | 0.9 | 0.0 | 0.00 | 0.00 | 0.00 | 69 | |
| 20260508155219 | 65 | 0 | 0.0 | 0.0 | 0.00 | 0.00 | 0.00 | 75 | |
| 20260508154219 | 63 | 0 | 1.7 | 0.0 | 0.00 | 0.00 | 0.00 | 78 | |
| 20260508153149 | 63 | 0 | 0.9 | 0.0 | 0.00 | 0.00 | 0.00 | 81 | |
| 20260508152119 | 62 | 0 | 0.0 | 0.0 | 0.00 | 0.00 | 0.00 | 86 | |
| 20260508151049 | 61 | 0 | 0.0 | 0.0 | 0.00 | 0.00 | 0.00 | 94 | |
| 20260508150019 | 60 | 0 | 1.7 | 0.0 | 0.00 | 0.00 | 0.00 | 99 | |
| 20260508144949 | 57 | 0 | 0.0 | 0.0 | 0.00 | 0.00 | 0.00 | 99 | |
| 20260508143949 | 54 | 0 | 0.0 | 0.0 | 0.00 | 0.00 | 0.00 | 99 | |
| 20260508142919 | 53 | 0 | 0.0 | 0.0 | 0.00 | 0.00 | 0.00 | 99 | |
| 20260508141919 | 52 | 0 | 0.0 | 0.0 | 0.00 | 0.00 | 0.00 | 99 | |
| 20260508140849 | 50 | 0 | 0.0 | 0.0 | 0.00 | 0.00 | 0.00 | 99 | |
| 20260508135819 | 50 | 0 | 0.0 | 0.0 | 0.00 | 0.00 | 0.00 | 99 | |
| 20260508134819 | 50 | 0 | 0.0 | 0.0 | 0.00 | 0.00 | 0.00 | 99 | |
| 20260508133749 | 49 | 0 | 0.0 | 0.0 | 0.00 | 0.00 | 0.00 | 99 | |
| 20260508132749 | 48 | 0 | 0.0 | 0.0 | 0.00 | 0.00 | 0.00 | 99 | |
| 20260508131719 | 49 | 0 | 0.0 | 0.0 | 0.00 | 0.00 | 0.00 | 99 | |
| 20260508130649 | 49 | 0 | 0.0 | 0.0 | 0.00 | 0.00 | 0.00 | 99 | |
| 20260508125619 | 49 | 0 | 0.0 | 0.0 | 0.00 | 0.00 | 0.00 | 99 | |
| 20260508124549 | 49 | 0 | 0.0 | 0.0 | 0.00 | 0.00 | 0.00 | 99 | |
| 20260508123519 | 49 | 0 | 0.0 | 0.0 | 0.00 | 0.00 | 0.00 | 99 | |
| 20260508122449 | 50 | 0 | 0.0 | 0.0 | 0.00 | 0.00 | 0.00 | 99 | |
| 20260508121419 | 50 | 0 | 0.0 | 0.0 | 0.00 | 0.00 | 0.00 | 99 | |
| 20260508120349 | 50 | 0 | 0.0 | 0.0 | 0.00 | 0.00 | 0.00 | 99 | |
| 20260508115319 | 50 | 0 | 0.0 | 0.0 | 0.00 | 0.00 | 0.00 | 99 | |
| 20260508114319 | 50 | 0 | 0.0 | 0.0 | 0.00 | 0.00 | 0.00 | 99 | |
| 20260508113249 | 51 | 0 | 0.0 | 0.0 | 0.00 | 0.00 | 0.00 | 99 | |
| 20260508112249 | 51 | 0 | 0.0 | 0.0 | 0.00 | 0.00 | 0.00 | 99 | |
| 20260508111249 | 51 | 0 | 0.0 | 0.0 | 0.00 | 0.00 | 0.00 | 99 | |
| 20260508110219 | 52 | 0 | 0.0 | 0.0 | 0.00 | 0.00 | 0.00 | 99 | |
| 20260508105219 | 52 | 0 | 0.0 | 0.0 | 0.00 | 0.00 | 0.00 | 99 | |
| 20260508104219 | 52 | 0 | 0.0 | 0.0 | 0.00 | 0.00 | 0.00 | 99 | |
| 20260508103149 | 52 | 0 | 0.0 | 0.0 | 0.00 | 0.00 | 0.00 | 99 | |
| 20260508102119 | 52 | 0 | 0.0 | 0.0 | 0.00 | 0.00 | 0.00 | 99 | |
| 20260508101049 | 53 | 0 | 0.0 | 0.0 | 0.00 | 0.00 | 0.00 | 99 | |
| 20260508100019 | 53 | 0 | 0.0 | 0.0 | 0.00 | 0.00 | 0.00 | 99 | |
| 20260508094949 | 53 | 0 | 0.0 | 0.0 | 0.00 | 0.00 | 0.00 | 99 | |
| 20260508093919 | 54 | 0 | 0.0 | 0.0 | 0.00 | 0.00 | 0.00 | 99 | |
| 20260508092919 | 54 | 0 | 0.0 | 0.0 | 0.00 | 0.00 | 0.00 | 99 | |
| 20260508091919 | 54 | 0 | 0.0 | 0.0 | 0.00 | 0.00 | 0.00 | 99 | |
| 20260508090919 | 54 | 0 | 0.0 | 0.0 | 0.00 | 0.00 | 0.00 | 99 | |
| 20260508085849 | 55 | 0 | 0.0 | 0.0 | 0.00 | 0.00 | 0.00 | 99 | |
| 20260508084849 | 55 | 0 | 0.0 | 0.0 | 0.00 | 0.00 | 0.00 | 99 | |
| 20260508083819 | 55 | 0 | 0.0 | 0.0 | 0.00 | 0.00 | 0.00 | 99 | |
| 20260508082749 | 55 | 0 | 0.0 | 0.0 | 0.00 | 0.00 | 0.00 | 99 | |
| 20260508081719 | 55 | 0 | 0.0 | 0.0 | 0.00 | 0.00 | 0.00 | 99 | |
| 20260508080719 | 55 | 0 | 0.0 | 0.0 | 0.00 | 0.00 | 0.00 | 99 | |
| 20260508075719 | 56 | 0 | 0.0 | 0.0 | 0.00 | 0.00 | 0.00 | 99 | |
| 20260508074719 | 56 | 0 | 0.0 | 0.0 | 0.00 | 0.00 | 0.00 | 99 | |
| 20260508073649 | 56 | 0 | 0.0 | 0.0 | 0.00 | 0.00 | 0.00 | 99 | |
| 20260508072619 | 56 | 0 | 0.0 | 0.0 | 0.00 | 0.00 | 0.00 | 99 | |
| 20260508071619 | 57 | 0 | 0.0 | 0.0 | 0.00 | 0.00 | 0.00 | 99 | |
| 20260508070549 | 57 | 0 | 0.0 | 0.0 | 0.00 | 0.00 | 0.00 | 99 | |
| 20260508065519 | 57 | 0 | 0.0 | 0.0 | 0.00 | 0.00 | 0.00 | 99 | |
| 20260508064449 | 58 | 0 | 0.0 | 0.0 | 0.00 | 0.00 | 0.00 | 99 | |
| 20260508063419 | 58 | 0 | 0.0 | 0.0 | 0.00 | 0.00 | 0.00 | 99 | |
| 20260508062419 | 58 | 0 | 0.0 | 0.0 | 0.00 | 0.00 | 0.00 | 99 |